Wind_Speed
13 13 11 11 13 15 17 16 14 17 20 18 15 15 18 20 20 21 22 20 20 21 23 24 23 25 28 30 31 38 41 40 41 41 39 37 34 34
13 15 15 13 14 15 16 17 20 18 24 19 21 20 24 24 23 22 23 26 24 24 24 23 24 26 28 30 34 35 41 43 43 43 42 41 39 36
12 11 12 13 13 15 16 19 21 20 21 25 21 22 26 26 27 27 27 28 27 29 29 29 31 29 30 31 33 36 38 43 45 46 44 44 42 40
10 10 11 13 14 17 18 19 20 20 22 23 27 24 22 27 30 31 29 27 30 31 32 33 35 35 36 35 33 36 40 42 46 47 48 46 45 44
12 13 15 16 17 18 19 21 20 23 21 23 25 25 25 23 25 26 25 26 26 28 32 36 40 42 44 37 32 33 39 44 46 48 48 50 47 47
16 16 18 18 18 19 21 23 24 24 22 22 24 25 25 24 23 24 27 26 29 28 30 33 37 39 42 45 43 36 36 43 46 49 49 49 49 46
18 18 20 19 20 22 22 23 22 22 20 22 25 25 26 26 27 26 28 29 31 30 32 32 32 40 40 41 41 39 33 38 44 47 51 49 48 46
20 19 21 23 24 25 25 25 25 27 30 28 27 27 26 27 27 27 29 32 38 30 31 42 36 44 47 45 43 41 36 37 39 44 50 51 48 46
23 24 26 26 26 27 27 27 27 29 30 29 30 29 26 27 29 30 32 32 36 34 36 51 44 51 56 54 44 43 38 36 41 42 48 50 50 46
24 28 27 26 25 25 29 27 28 28 27 26 24 27 29 32 34 35 38 36 37 32 33 49 53 61 55 50 47 43 39 37 36 43 45 50 49 47
28 27 24 22 23 24 26 26 23 24 23 23 25 28 29 31 30 29 32 26 32 35 40 51 57 58 54 53 48 40 37 35 36 44 44 47 47 47
26 25 21 22 23 23 22 21 21 21 23 24 26 28 26 24 23 20 22 26 31 44 48 50 53 49 49 45 34 26 27 32 35 43 42 45 46 45
25 21 23 22 22 20 19 20 22 21 21 23 25 20 19 20 17 17 22 23 32 44 47 48 50 48 39 41 32 27 23 26 31 40 40 43 45 46
20 22 22 20 20 19 19 21 19 17 20 22 16 16 18 19 21 24 26 26 30 39 43 46 44 42 35 32 30 26 18 22 33 37 37 40 43 45
19 19 21 19 19 20 21 19 16 17 20 17 15 17 21 23 25 28 29 29 31 37 39 40 40 31 23 26 25 20 24 20 34 32 33 38 43 48
20 20 20 21 20 19 16 15 16 19 19 17 18 20 22 22 24 28 29 28 32 39 37 38 31 20 16 19 22 25 20 14 30 32 31 33 39 43
19 20 19 17 14 11 12 14 17 16 14 16 17 18 20 21 23 26 25 25 29 36 41 43 32 16 9 13 19 22 12 12 14 29 31 33 35 40
17 16 12 11 8 9 11 12 11 12 14 17 17 18 18 20 22 24 21 21 27 31 35 43 40 32 21 9 11 18 18 8 11 12 18 29 35 40
12 11 9 9 9 10 10 9 10 14 16 17 17 16 17 18 20 19 19 21 26 24 28 34 39 37 32 28 19 15 13 8 12 19 20 20 32 37
11 10 9 11 11 8 7 10 13 15 15 15 13 13 14 16 17 18 17 23 25 21 23 28 31 33 34 24 22 19 11 14 13 13 23 25 26 31
11 11 9 8 7 8 10 12 14 14 13 11 10 11 13 15 16 17 17 19 20 24 20 21 23 23 24 33 34 26 17 20 7 16 19 26 21 26
8 7 6 7 8 9 11 13 12 9 7 7 8 9 11 13 15 17 17 17 18 22 22 17 17 21 26 29 32 33 27 23 23 4 13 15 22 17
7 7 7 7 9 11 12 9 6 5 4 4 6 9 11 13 14 15 16 16 15 19 22 20 19 18 19 26 31 38 29 33 36 20 14 16 12 12
Wind_Direction
253 262 273 271 282 290 290 289 284 294 297 301 300 311 324 318 314 311 313 313 313 309 307 310 311 305 291 278 271 258 254 251 248 245 243 243 243 242
257 270 278 281 286 288 289 287 290 281 288 296 297 297 313 314 312 310 304 305 306 307 309 310 310 318 308 291 275 265 254 250 246 245 243 241 240 239
264 275 283 286 290 293 291 289 282 282 279 292 292 296 307 311 314 313 310 307 304 307 311 310 315 309 315 306 285 268 259 249 246 243 242 241 239 236
260 275 288 290 294 299 297 293 286 283 279 281 295 295 293 304 309 313 309 306 305 305 309 309 314 320 314 310 293 276 259 253 244 243 241 241 239 237
267 280 287 287 288 296 299 295 288 292 286 282 289 294 295 298 301 305 301 300 303 306 310 311 313 312 313 308 295 283 263 252 246 240 240 240 240 237
271 278 283 283 287 295 300 303 301 296 288 285 288 293 296 299 300 301 303 301 299 300 302 310 310 312 311 309 307 291 269 254 247 240 237 238 238 239
271 282 284 286 289 292 294 303 296 298 291 289 288 292 295 298 299 298 299 302 299 304 300 300 305 304 306 300 294 291 279 257 247 241 236 235 236 237
271 279 283 287 288 290 291 294 291 294 295 291 288 287 293 297 300 300 301 300 300 300 294 295 303 304 304 300 289 287 274 259 247 237 233 232 233 234
276 282 281 285 288 287 287 291 292 294 289 290 291 292 294 297 299 301 298 294 295 297 298 298 307 301 303 303 291 286 279 260 247 239 227 228 229 232
282 285 282 285 285 288 291 292 296 293 292 292 285 291 293 298 299 297 296 294 295 295 299 298 307 304 302 300 294 286 277 262 245 236 226 224 225 227
290 284 283 283 289 287 290 297 299 299 295 291 289 293 293 297 300 297 299 296 296 300 305 312 306 300 299 296 294 281 272 258 245 229 223 220 221 224
285 279 277 285 285 289 293 295 296 294 295 292 296 303 307 310 312 308 309 302 303 309 318 313 311 304 297 300 291 287 264 251 238 222 218 216 216 219
271 274 282 287 289 290 293 293 291 295 297 305 312 313 314 319 315 312 312 306 304 309 325 325 315 312 302 289 286 274 276 242 233 215 213 213 215 213
268 279 284 287 287 292 297 294 293 294 303 313 313 316 318 320 318 320 321 313 313 318 328 336 320 313 298 291 281 297 294 229 217 212 211 212 212 212
274 283 286 288 291 295 291 288 290 301 307 309 311 318 319 321 323 326 325 322 323 324 337 343 338 318 277 272 281 285 309 235 216 219 217 214 211 207
283 288 293 294 294 292 285 288 298 305 305 306 313 319 320 323 325 328 328 326 330 334 347 356 354 327 287 279 283 286 289 235 222 225 218 216 210 214
286 290 293 294 291 280 284 296 305 307 309 312 315 319 320 324 325 329 330 329 335 342 353 1 3 349 299 291 296 299 324 243 227 218 213 214 215 215
284 285 282 272 254 264 288 298 303 313 316 317 317 321 321 326 326 332 331 332 338 347 359 5 9 17 15 325 320 299 289 264 249 239 222 216 213 211
278 280 268 260 266 286 294 299 310 314 320 319 319 322 323 328 330 329 332 339 343 348 5 10 4 13 5 8 7 346 306 270 246 249 243 240 220 212
274 271 261 276 287 289 299 309 315 318 318 318 322 326 330 334 335 332 333 345 351 348 358 6 7 6 15 355 2 5 347 257 243 252 245 236 229 219
281 275 274 274 279 296 305 312 315 316 317 323 330 335 338 341 339 338 335 342 348 356 351 0 4 4 11 28 27 24 22 55 240 235 236 224 189 206
288 267 269 278 294 305 312 313 319 320 324 332 333 341 345 346 343 346 346 345 348 355 359 355 356 4 18 30 29 29 35 50 75 185 242 191 173 177
281 270 280 292 301 306 308 312 319 323 335 339 341 341 346 348 349 351 352 352 352 5 8 14 18 22 23 35 36 37 50 42 50 75 75 44 146 162
Height
1560 1561 1560 1559 1558 1557 1556 1556 1556 1553 1552 1551 1547 1546 1542 1541 1541 1539 1536 1535 1533 1532 1530 1528 1525 1523 1520 1519 1519 1519 1521 1524 1526 1529 1531 1535 1538 1541
1556 1557 1556 1556 1556 1555 1555 1553 1551 1551 1546 1549 1545 1542 1538 1535 1533 1532 1530 1528 1526 1524 1523 1520 1518 1515 1512 1509 1508 1508 1509 1512 1515 1518 1521 1525 1528 1532
1553 1552 1553 1552 1551 1551 1550 1548 1547 1545 1544 1538 1540 1536 1532 1530 1527 1526 1523 1521 1518 1515 1513 1511 1509 1506 1503 1500 1497 1496 1496 1498 1502 1506 1510 1514 1518 1522
1550 1548 1548 1548 1546 1544 1543 1542 1541 1539 1536 1534 1532 1530 1527 1523 1520 1518 1517 1514 1511 1508 1505 1502 1498 1494 1492 1489 1486 1484 1484 1485 1488 1493 1497 1502 1506 1511
1546 1545 1545 1544 1542 1542 1538 1538 1535 1534 1532 1528 1526 1525 1522 1516 1513 1511 1509 1506 1502 1499 1495 1491 1487 1484 1480 1477 1474 1472 1471 1472 1474 1478 1484 1489 1494 1499
1541 1539 1539 1538 1537 1536 1535 1531 1530 1528 1525 1522 1521 1518 1516 1512 1508 1506 1502 1501 1497 1493 1488 1483 1479 1473 1469 1464 1460 1458 1457 1458 1460 1464 1470 1475 1481 1487
1536 1534 1534 1533 1532 1530 1528 1527 1524 1522 1520 1517 1515 1510 1508 1506 1503 1500 1495 1492 1489 1486 1480 1477 1472 1466 1459 1455 1449 1445 1442 1443 1446 1450 1455 1462 1468 1474
1531 1528 1529 1527 1526 1525 1522 1521 1520 1516 1513 1511 1509 1505 1501 1499 1496 1492 1488 1483 1477 1480 1471 1463 1463 1451 1447 1441 1435 1431 1430 1430 1432 1435 1441 1448 1455 1462
1524 1523 1525 1521 1520 1519 1516 1514 1513 1510 1508 1505 1501 1498 1494 1491 1487 1482 1479 1475 1468 1466 1463 1445 1450 1436 1430 1421 1416 1413 1413 1414 1416 1420 1426 1434 1442 1450
1517 1517 1517 1516 1514 1512 1511 1508 1505 1503 1501 1497 1495 1492 1488 1484 1479 1474 1469 1464 1458 1458 1457 1439 1434 1420 1412 1405 1400 1397 1397 1398 1401 1406 1412 1421 1429 1438
1513 1510 1508 1508 1507 1505 1503 1501 1497 1496 1493 1491 1489 1485 1482 1478 1472 1465 1462 1458 1451 1450 1446 1434 1418 1404 1397 1389 1384 1381 1380 1382 1386 1392 1399 1408 1418 1427
1505 1503 1501 1500 1499 1499 1496 1493 1492 1490 1487 1487 1483 1477 1473 1469 1465 1460 1456 1451 1446 1438 1434 1423 1405 1397 1381 1374 1369 1368 1368 1367 1372 1380 1388 1397 1407 1415
1499 1497 1495 1494 1493 1492 1490 1488 1486 1484 1483 1480 1475 1471 1467 1463 1459 1456 1452 1447 1441 1431 1422 1410 1394 1385 1378 1366 1361 1361 1360 1362 1364 1371 1379 1387 1395 1404
1494 1490 1489 1488 1487 1486 1484 1484 1481 1480 1479 1475 1471 1467 1462 1458 1454 1450 1445 1441 1436 1425 1414 1401 1385 1377 1369 1363 1359 1355 1354 1356 1359 1365 1371 1378 1386 1395
1487 1485 1484 1483 1482 1480 1481 1478 1478 1476 1474 1470 1466 1462 1459 1454 1449 1443 1439 1433 1427 1419 1408 1392 1379 1367 1363 1360 1356 1353 1352 1352 1355 1359 1365 1370 1377 1383
1481 1479 1480 1479 1479 1476 1476 1475 1474 1471 1469 1465 1460 1457 1454 1450 1445 1439 1433 1426 1419 1411 1401 1387 1372 1363 1358 1356 1355 1350 1348 1349 1351 1354 1359 1365 1371 1377
1475 1474 1473 1473 1474 1474 1473 1471 1469 1467 1464 1460 1457 1453 1450 1446 1441 1435 1430 1423 1416 1406 1393 1381 1368 1359 1355 1354 1351 1341 1342 1346 1348 1350 1353 1359 1364 1369
1471 1470 1470 1470 1470 1470 1468 1467 1465 1463 1460 1457 1454 1450 1446 1442 1437 1432 1428 1422 1414 1405 1395 1385 1371 1360 1355 1349 1349 1345 1338 1340 1346 1348 1350 1353 1357 1363
1468 1467 1468 1469 1465 1464 1464 1462 1461 1459 1456 1454 1451 1447 1443 1439 1434 1431 1427 1421 1414 1407 1398 1389 1380 1370 1361 1355 1352 1349 1344 1343 1344 1345 1347 1350 1352 1357
1465 1464 1463 1463 1462 1460 1459 1458 1456 1455 1453 1451 1448 1445 1441 1437 1433 1430 1426 1419 1413 1407 1400 1393 1385 1378 1371 1365 1358 1352 1345 1342 1342 1341 1344 1347 1348 1352
1461 1460 1459 1459 1458 1457 1456 1454 1453 1452 1450 1448 1446 1443 1440 1436 1433 1429 1424 1419 1414 1407 1401 1396 1390 1384 1378 1369 1360 1353 1346 1342 1339 1341 1340 1340 1341 1346
1456 1457 1456 1455 1455 1454 1453 1452 1450 1449 1447 1446 1445 1442 1439 1436 1433 1429 1424 1419 1414 1408 1403 1398 1393 1387 1379 1373 1368 1357 1350 1341 1337 1334 1332 1331 1334 1342
1454 1454 1453 1452 1452 1451 1450 1449 1448 1447 1446 1445 1444 1442 1438 1435 1433 1429 1425 1421 1416 1410 1404 1400 1395 1390 1384 1378 1370 1364 1356 1349 1338 1336 1334 1331 1331 1339